Location: Praha
(50.0830°N, 14.4670°E)
Time: 06:25:46
(UTC+01:00)

ISS - Pass Details

Date: 08 December 2019
Orbit: 411 x 421 km, 51.6° (Epoch: 15 December)

Event Time Altitude Azimuth Distance (km) Brightness Sun altitude
Rises 18:24:36 0° 285° (WNW) 2,360 1.2 -22.0°
Reaches altitude 10° 18:27:01 10° 268° (W) 1,496 0.2 -22.4°
Maximum altitude 18:29:37 21° 218° (SW) 1,000 -1.4 -22.8°
Enters shadow 18:30:48 18° 189° (S) 1,120 -1.5 -23.0°
